Terminal Aerodrome Forecast
Issued by NWS Twin Cities, MN

Home | Current Version | Previous Version | Graphics & Text | Print | Product List | Glossary On
Versions: 1 2 3 4 5 6 7 8 9 10 11 12 13 14 15 16 17 18 19 20 21 22 23 24 25
000
FTUS43 KMPX 181300 AAA
TAFMSP
TAF AMD
KMSP 181301Z 1813/1918 06005KT P6SM SKC
     FM181330 07006KT P6SM SCT005
     FM181430 09007KT P6SM FEW010
     FM181600 14010KT P6SM SCT045
     FM190300 16014KT P6SM BKN050=

USA.gov is the U.S. government's official web portal to all federal, state and local government web resources and services.